Time,TemperatureF,DewpointF,PressureIn,WindDirection,WindDirectionDegrees,WindSpeedMPH,WindSpeedGustMPH,Humidity,HourlyPrecipIn,Conditions,Clouds,dailyrainin,SoftwareType,DateUTC
2013-04-01 00:13:00,56.5,55.9,29.73,NE,45,0.0,-999.0,98,-99.99,,,0.96,Acu-Link.com,2013-04-01 02:13:00,
2013-04-01 00:28:00,56.1,55.6,29.73,North,0,0.0,-999.0,98,-99.99,,,0.96,Acu-Link.com,2013-04-01 02:28:00,
2013-04-01 00:43:00,56.1,55.6,29.73,SE,135,0.0,-999.0,98,-99.99,,,0.96,Acu-Link.com,2013-04-01 02:43:00,
2013-04-01 00:58:00,55.9,55.4,29.73,SSW,202,0.0,-999.0,98,-99.99,,,0.96,Acu-Link.com,2013-04-01 02:58:00,
2013-04-01 01:13:00,55.8,55.2,29.74,East,90,0.0,-999.0,98,-99.99,,,0.96,Acu-Link.com,2013-04-01 03:13:00,
2013-04-01 01:28:00,55.8,55.2,29.73,South,180,0.0,-999.0,98,-99.99,,,0.96,Acu-Link.com,2013-04-01 03:28:00,
2013-04-01 01:44:00,55.6,55.0,29.73,SW,225,0.0,-999.0,98,-99.99,,,0.96,Acu-Link.com,2013-04-01 03:44:00,
2013-04-01 01:59:00,55.6,55.0,29.73,NNE,22,0.0,-999.0,98,-99.99,,,0.96,Acu-Link.com,2013-04-01 03:59:00,
2013-04-01 02:14:00,55.4,54.8,29.71,South,180,0.0,-999.0,98,-99.99,,,0.01,Acu-Link.com,2013-04-01 04:14:00,
2013-04-01 02:29:00,55.2,54.7,29.72,NNE,22,0.0,-999.0,98,-99.99,,,0.01,Acu-Link.com,2013-04-01 04:29:00,
2013-04-01 02:44:00,55.2,54.7,29.72,NNW,337,0.0,-999.0,98,-99.99,,,0.01,Acu-Link.com,2013-04-01 04:44:00,
2013-04-01 03:00:00,55.0,54.5,29.72,SSW,202,0.0,-999.0,98,-99.99,,,0.01,Acu-Link.com,2013-04-01 05:00:00,
2013-04-01 03:15:00,55.2,54.7,29.72,SSW,202,1.1,-999.0,98,-99.99,,,0.01,Acu-Link.com,2013-04-01 05:15:00,
2013-04-01 03:30:00,55.2,54.7,29.71,South,180,0.0,-999.0,98,-99.99,,,0.01,Acu-Link.com,2013-04-01 05:30:00,
2013-04-01 03:45:00,55.0,54.5,29.70,North,0,0.0,-999.0,98,-99.99,,,0.01,Acu-Link.com,2013-04-01 05:45:00,
2013-04-01 04:00:00,55.0,54.5,29.70,East,90,0.0,-999.0,98,-99.99,,,0.01,Acu-Link.com,2013-04-01 06:00:00,
2013-04-01 04:16:00,55.0,54.5,29.70,NNE,22,0.0,-999.0,98,-99.99,,,0.01,Acu-Link.com,2013-04-01 06:16:00,
2013-04-01 04:46:00,54.9,54.3,29.71,NE,45,0.0,-999.0,98,-99.99,,,0.01,Acu-Link.com,2013-04-01 06:46:00,
2013-04-01 05:32:00,54.0,53.4,29.70,SSW,202,0.0,-999.0,98,-99.99,,,0.01,Acu-Link.com,2013-04-01 07:32:00,
2013-04-01 05:47:00,54.1,53.6,29.71,South,180,0.0,-999.0,98,-99.99,,,0.01,Acu-Link.com,2013-04-01 07:47:00,
2013-04-01 06:03:00,54.0,53.4,29.71,NNE,22,0.0,-999.0,98,-99.99,,,0.01,Acu-Link.com,2013-04-01 08:03:00,
2013-04-01 06:18:00,54.0,53.4,29.71,ESE,112,0.0,-999.0,98,-99.99,,,0.01,Acu-Link.com,2013-04-01 08:18:00,
2013-04-01 06:35:00,53.8,53.2,29.71,SSW,202,0.0,-999.0,98,-99.99,,,0.01,Acu-Link.com,2013-04-01 08:35:00,
2013-04-01 06:52:00,52.7,52.2,29.71,North,0,0.0,-999.0,98,-99.99,,,0.01,Acu-Link.com,2013-04-01 08:52:00,
2013-04-01 07:22:00,51.1,50.5,29.71,NE,45,0.0,-999.0,98,-99.99,,,0.01,Acu-Link.com,2013-04-01 09:22:00,
2013-04-01 07:38:00,49.8,49.3,29.71,North,0,0.0,-999.0,98,-99.99,,,0.01,Acu-Link.com,2013-04-01 09:38:00,
2013-04-01 07:53:00,49.3,48.7,29.71,North,0,0.0,-999.0,98,-99.99,,,0.01,Acu-Link.com,2013-04-01 09:53:00,
2013-04-01 08:08:00,48.7,48.2,29.72,North,0,0.0,-999.0,98,-99.99,,,0.01,Acu-Link.com,2013-04-01 10:08:00,
2013-04-01 08:23:00,48.2,47.7,29.72,NE,45,0.0,-999.0,98,-99.99,,,0.01,Acu-Link.com,2013-04-01 10:23:00,
2013-04-01 08:38:00,47.8,47.3,29.73,ENE,67,0.0,-999.0,98,-99.99,,,0.01,Acu-Link.com,2013-04-01 10:38:00,
2013-04-01 08:54:00,47.5,46.9,29.73,ESE,112,0.0,-999.0,98,-99.99,,,0.01,Acu-Link.com,2013-04-01 10:54:00,
2013-04-01 09:09:00,46.9,46.4,29.74,NNW,337,0.0,-999.0,98,-99.99,,,0.01,Acu-Link.com,2013-04-01 11:09:00,
2013-04-01 09:24:00,46.2,45.7,29.74,East,90,0.0,-999.0,98,-99.99,,,0.01,Acu-Link.com,2013-04-01 11:24:00,
2013-04-01 09:39:00,45.9,45.3,29.76,NNE,22,0.0,-999.0,98,-99.99,,,0.01,Acu-Link.com,2013-04-01 11:39:00,
2013-04-01 09:54:00,45.9,45.3,29.76,SSW,202,0.0,-999.0,98,-99.99,,,0.01,Acu-Link.com,2013-04-01 11:54:00,
2013-04-01 10:10:00,47.7,47.1,29.77,SE,135,0.0,-999.0,98,-99.99,,,0.01,Acu-Link.com,2013-04-01 12:10:00,
2013-04-01 10:25:00,50.5,50.0,29.78,NNW,337,0.0,-999.0,98,-99.99,,,0.01,Acu-Link.com,2013-04-01 12:25:00,
2013-04-01 10:40:00,52.9,52.3,29.78,NNW,337,1.6,-999.0,98,-99.99,,,0.01,Acu-Link.com,2013-04-01 12:40:00,
2013-04-01 10:55:00,55.9,55.4,29.79,ESE,112,0.0,-999.0,98,-99.99,,,0.01,Acu-Link.com,2013-04-01 12:55:00,
2013-04-01 11:11:00,59.5,59.0,29.79,SE,135,0.0,-999.0,98,-99.99,,,0.01,Acu-Link.com,2013-04-01 13:11:00,
2013-04-01 11:26:00,62.8,59.5,29.79,North,0,0.0,-999.0,89,-99.99,,,0.01,Acu-Link.com,2013-04-01 13:26:00,
2013-04-01 11:41:00,66.9,57.2,29.79,WNW,292,0.0,-999.0,71,-99.99,,,0.01,Acu-Link.com,2013-04-01 13:41:00,
2013-04-01 11:56:00,69.4,53.1,29.80,South,180,0.0,-999.0,56,-99.99,,,0.01,Acu-Link.com,2013-04-01 13:56:00,
2013-04-01 12:11:00,68.4,53.0,29.80,East,90,1.6,-999.0,58,-99.99,,,0.01,Acu-Link.com,2013-04-01 14:11:00,
2013-04-01 12:42:00,70.7,48.9,29.80,NNE,22,3.1,-999.0,46,-99.99,,,0.01,Acu-Link.com,2013-04-01 14:42:00,
2013-04-01 12:57:00,69.1,49.1,29.81,North,0,6.3,-999.0,49,-99.99,,,0.01,Acu-Link.com,2013-04-01 14:57:00,
2013-04-01 13:12:00,71.6,48.5,29.82,NNW,337,4.3,-999.0,44,-99.99,,,0.01,Acu-Link.com,2013-04-01 15:12:00,
2013-04-01 13:27:00,73.4,48.3,29.82,North,0,3.8,-999.0,41,-99.99,,,0.01,Acu-Link.com,2013-04-01 15:27:00,
2013-04-01 13:58:00,72.5,47.4,29.83,NNW,337,2.2,-999.0,41,-99.99,,,0.01,Acu-Link.com,2013-04-01 15:58:00,
2013-04-01 14:13:00,73.0,47.9,29.81,WNW,292,5.1,-999.0,41,-99.99,,,0.01,Acu-Link.com,2013-04-01 16:13:00,
2013-04-01 14:28:00,72.1,47.1,29.82,NNW,337,4.7,-999.0,41,-99.99,,,0.01,Acu-Link.com,2013-04-01 16:28:00,
2013-04-01 14:43:00,72.0,47.6,29.82,NNW,337,4.7,-999.0,42,-99.99,,,0.01,Acu-Link.com,2013-04-01 16:43:00,
2013-04-01 14:59:00,71.6,47.3,29.82,East,90,5.8,-999.0,42,-99.99,,,0.01,Acu-Link.com,2013-04-01 16:59:00,
2013-04-01 15:14:00,71.1,46.8,29.81,SSE,157,3.1,-999.0,42,-99.99,,,0.01,Acu-Link.com,2013-04-01 17:14:00,
2013-04-01 15:29:00,73.9,47.4,29.81,NNW,337,2.7,-999.0,39,-99.99,,,0.01,Acu-Link.com,2013-04-01 17:29:00,
2013-04-01 15:44:00,74.1,46.9,29.81,North,0,5.1,-999.0,38,-99.99,,,0.01,Acu-Link.com,2013-04-01 17:44:00,
2013-04-01 16:00:00,77.0,48.7,29.81,WNW,292,2.7,-999.0,37,-99.99,,,0.01,Acu-Link.com,2013-04-01 18:00:00,
2013-04-01 16:15:00,76.6,48.4,29.81,WNW,292,1.6,-999.0,37,-99.99,,,0.01,Acu-Link.com,2013-04-01 18:15:00,
2013-04-01 16:30:00,76.1,47.9,29.81,ESE,112,4.3,-999.0,37,-99.99,,,0.01,Acu-Link.com,2013-04-01 18:30:00,
2013-04-01 16:45:00,74.7,47.4,29.80,NNW,337,4.7,-999.0,38,-99.99,,,0.01,Acu-Link.com,2013-04-01 18:45:00,
2013-04-01 17:00:00,72.0,45.0,29.81,WSW,247,7.4,-999.0,38,-99.99,,,0.01,Acu-Link.com,2013-04-01 19:00:00,
2013-04-01 17:16:00,75.9,49.2,29.80,NNW,337,6.3,-999.0,39,-99.99,,,0.01,Acu-Link.com,2013-04-01 19:16:00,
2013-04-01 17:46:00,73.0,48.6,29.80,West,270,3.8,-999.0,42,-99.99,,,0.01,Acu-Link.com,2013-04-01 19:46:00,
2013-04-01 18:01:00,71.4,47.1,29.80,NNW,337,6.3,-999.0,42,-99.99,,,0.01,Acu-Link.com,2013-04-01 20:01:00,
2013-04-01 18:16:00,68.9,46.1,29.80,SW,225,4.7,-999.0,44,-99.99,,,0.01,Acu-Link.com,2013-04-01 20:16:00,
2013-04-01 18:32:00,69.8,48.7,29.79,West,270,4.7,-999.0,47,-99.99,,,0.01,Acu-Link.com,2013-04-01 20:32:00,
2013-04-01 18:47:00,70.2,49.5,29.80,SE,135,3.8,-999.0,48,-99.99,,,0.01,Acu-Link.com,2013-04-01 20:47:00,
2013-04-01 19:02:00,67.5,47.1,29.80,NE,45,3.1,-999.0,48,-99.99,,,0.01,Acu-Link.com,2013-04-01 21:02:00,
2013-04-01 19:17:00,66.4,47.2,29.80,NW,315,2.7,-999.0,50,-99.99,,,0.01,Acu-Link.com,2013-04-01 21:17:00,
2013-04-01 19:32:00,66.6,47.3,29.79,NW,315,3.1,-999.0,50,-99.99,,,0.01,Acu-Link.com,2013-04-01 21:32:00,
2013-04-01 19:48:00,66.9,48.7,29.79,NNE,22,1.6,-999.0,52,-99.99,,,0.01,Acu-Link.com,2013-04-01 21:48:00,
2013-04-01 20:03:00,67.3,48.5,29.80,North,0,2.2,-999.0,51,-99.99,,,0.01,Acu-Link.com,2013-04-01 22:03:00,
2013-04-01 20:18:00,65.7,47.0,29.80,ENE,67,1.1,-999.0,51,-99.99,,,0.01,Acu-Link.com,2013-04-01 22:18:00,
2013-04-01 20:33:00,65.3,47.2,29.80,WNW,292,4.7,-999.0,52,-99.99,,,0.01,Acu-Link.com,2013-04-01 22:33:00,
2013-04-01 20:49:00,64.4,47.9,29.80,ESE,112,1.1,-999.0,55,-99.99,,,0.01,Acu-Link.com,2013-04-01 22:49:00,
2013-04-01 21:04:00,63.7,47.7,29.80,West,270,1.1,-999.0,56,-99.99,,,0.01,Acu-Link.com,2013-04-01 23:04:00,
2013-04-01 21:19:00,63.1,48.1,29.80,SSE,157,0.0,-999.0,58,-99.99,,,0.01,Acu-Link.com,2013-04-01 23:19:00,
2013-04-01 21:34:00,62.2,47.7,29.80,South,180,1.6,-999.0,59,-99.99,,,0.01,Acu-Link.com,2013-04-01 23:34:00,
2013-04-01 21:49:00,61.5,47.1,29.81,ENE,67,0.0,-999.0,59,-99.99,,,0.01,Acu-Link.com,2013-04-01 23:49:00,
2013-04-01 22:05:00,60.3,46.8,29.81,ESE,112,1.6,-999.0,61,-99.99,,,0.01,Acu-Link.com,2013-04-02 00:05:00,
2013-04-01 22:20:00,59.0,46.0,29.81,NE,45,0.0,-999.0,62,-99.99,,,0.01,Acu-Link.com,2013-04-02 00:20:00,
2013-04-01 22:35:00,58.5,45.9,29.81,ESE,112,2.2,-999.0,63,-99.99,,,0.01,Acu-Link.com,2013-04-02 00:35:00,
2013-04-01 22:50:00,57.9,45.8,29.82,North,0,3.1,-999.0,64,-99.99,,,0.01,Acu-Link.com,2013-04-02 00:50:00,
2013-04-01 23:05:00,57.2,45.9,29.82,NNW,337,1.1,-999.0,66,-99.99,,,0.01,Acu-Link.com,2013-04-02 01:05:00,
2013-04-01 23:21:00,56.7,45.8,29.83,North,0,2.7,-999.0,67,-99.99,,,0.01,Acu-Link.com,2013-04-02 01:21:00,
2013-04-01 23:36:00,56.3,45.9,29.84,WNW,292,1.1,-999.0,68,-99.99,,,0.01,Acu-Link.com,2013-04-02 01:36:00,
2013-04-01 23:51:00,55.8,45.7,29.85,NNW,337,0.0,-999.0,69,-99.99,,,0.01,Acu-Link.com,2013-04-02 01:51:00,